CAPE
1525 1586 1614 1551 1568 1118 911 995 1126 1158 1212 1309 1525 1413 1308 1301 1205 1156 1094 931 655 611 539 365 165 138 30 0 0 0 0 0
1495 1318 1406 1310 1525 1153 945 1015 1112 1185 1185 1194 1169 1089 1149 1106 1020 1096 842 510 508 618 490 268 73 58 1 0 0 0 0 0
1504 1218 1210 1269 1458 1331 1049 1126 1086 1156 1144 1015 880 1004 1040 954 861 887 458 330 467 559 442 126 2 1 0 0 0 0 0 0
1381 1215 1233 1344 1405 1312 969 1300 1210 1219 1160 981 924 907 840 744 780 724 374 266 338 422 283 33 0 0 0 0 0 0 0 0
1496 1349 1310 1365 1239 1151 1029 1202 1223 1249 1123 1017 989 951 993 787 814 753 508 227 169 251 118 0 0 0 0 0 0 0 0 0
1678 1435 1422 1320 1371 1333 1230 1085 1072 1045 1016 1135 1053 980 970 802 752 684 498 120 28 56 45 0 0 0 0 0 0 0 0 0
1666 1642 1627 1386 1399 1386 1390 1033 1016 1000 1040 1213 1149 1071 1036 869 636 543 439 43 0 0 8 0 0 0 0 0 0 0 0 0
1799 1760 1688 1479 1369 1318 1462 1227 1048 1049 1040 1193 1181 1074 1019 830 696 492 465 61 0 0 0 0 0 0 0 0 0 0 0 0
1857 1795 1693 1623 1601 1515 1433 1443 1207 1032 1083 1199 1198 1031 981 847 757 625 273 21 0 0 0 0 0 0 0 0 0 0 0 0
1735 1891 1739 1705 1660 1662 1623 1526 1414 1175 1126 1162 1118 1116 1051 828 538 436 184 54 0 0 0 0 0 0 0 0 0 0 0 0
1038 1768 1668 1755 1748 1698 1648 1579 1512 1445 1304 1111 1028 974 925 717 460 266 123 3 0 0 0 0 0 0 0 0 0 0 0 0
164 1008 1529 1743 1682 1599 1498 1532 1585 1626 1486 1311 1108 879 777 521 352 245 116 28 0 0 0 0 0 0 0 0 0 0 0 0
0 229 976 1464 1670 1633 1544 1547 1346 1517 1596 1677 1352 950 711 525 339 147 69 52 0 0 0 0 0 0 0 0 0 0 0 0
0 6 526 1213 1494 1552 1507 1439 1355 1609 1518 1437 1444 1120 681 508 281 107 62 74 2 0 0 0 0 0 0 0 0 0 0 0
0 0 264 954 1401 1491 1431 1397 1358 1492 1462 1512 1512 1299 731 531 288 82 50 29 2 0 0 0 0 0 0 0 0 0 0 0
0 0 30 948 1407 1328 1273 1180 1220 1398 1491 1458 1392 1228 911 611 247 119 61 12 2 0 0 0 0 0 0 0 0 0 0 0
0 0 40 1025 1485 1333 1282 1128 1068 1217 1259 1129 1266 1201 850 603 277 122 53 24 1 1 0 0 0 0 0 0 0 0 0 0
0 0 217 1351 1621 1499 1334 1266 1138 1238 1211 1235 1106 1217 813 582 336 91 82 53 5 1 0 0 0 0 0 0 0 0 0 0
0 29 492 1378 1659 1642 1539 1407 1282 1262 1314 1031 1198 1204 1003 560 385 122 92 70 22 1 2 0 0 0 0 0 0 0 0 0
0 453 762 1512 1767 1773 1705 1575 1455 1215 1305 1193 1251 1290 1008 640 425 139 107 54 27 2 2 1 0 0 0 0 0 0 0 0
CIN
-326 -255 -197 -183 -123 -177 -186 -185 -177 -186 -195 -193 -149 -179 -199 -194 -224 -237 -233 -255 -319 -305 -287 -312 -360 -324 -424 -0 -0 -0 -0 -0
-279 -264 -202 -198 -123 -149 -174 -179 -178 -177 -192 -195 -201 -219 -214 -215 -234 -225 -279 -347 -344 -300 -297 -336 -418 -419 -30 -0 -0 -0 -0 -0
-231 -265 -202 -200 -132 -94 -141 -148 -174 -167 -181 -207 -220 -216 -210 -218 -254 -261 -383 -394 -335 -295 -299 -408 -360 -241 -36 -0 -0 -0 -0 -0
-228 -256 -212 -190 -159 -137 -161 -103 -133 -137 -162 -204 -195 -215 -242 -268 -254 -279 -381 -422 -354 -322 -362 -560 -0 -0 -0 -0 -0 -0 -0 -0
-218 -239 -225 -204 -234 -200 -180 -122 -117 -114 -147 -187 -190 -190 -173 -218 -209 -216 -309 -416 -431 -388 -484 -0 -0 -0 -0 -0 -0 -0 -0 -0
-204 -227 -193 -211 -207 -221 -204 -191 -170 -175 -179 -141 -168 -177 -173 -206 -224 -234 -293 -472 -567 -541 -609 -0 -0 -0 -0 -0 -0 -0 -0 -0
-247 -215 -214 -204 -189 -202 -214 -236 -217 -221 -199 -161 -167 -167 -162 -185 -244 -269 -301 -534 -0 -0 -673 -0 -0 -0 -0 -0 -0 -0 -0 -0
-237 -222 -235 -229 -224 -221 -205 -267 -252 -214 -214 -195 -187 -198 -178 -200 -224 -273 -275 -450 -0 -0 -0 -0 -0 -0 -0 -0 -0 -0 -0 -0
-223 -230 -212 -227 -213 -211 -192 -191 -265 -252 -233 -192 -181 -205 -204 -242 -216 -225 -299 -395 -0 -0 -0 -0 -0 -0 -0 -0 -0 -0 -0 -0
-204 -202 -217 -218 -198 -210 -182 -169 -182 -254 -230 -210 -195 -181 -189 -210 -247 -249 -304 -370 -0 -0 -0 -0 -0 -0 -0 -0 -0 -0 -0 -0
-135 -199 -211 -215 -216 -180 -195 -170 -151 -165 -205 -205 -212 -203 -205 -220 -244 -283 -320 -371 -0 -0 -0 -0 -0 -0 -0 -0 -0 -0 -0 -0
-164 -183 -203 -179 -185 -142 -134 -126 -119 -99 -133 -166 -183 -210 -205 -217 -277 -308 -306 -300 -0 -0 -0 -0 -0 -0 -0 -0 -0 -0 -0 -0
-0 -164 -194 -169 -104 -96 -71 -88 -100 -91 -90 -109 -127 -156 -214 -256 -280 -326 -329 -303 -0 -0 -0 -0 -0 -0 -0 -0 -0 -0 -0 -0
-0 -90 -216 -182 -137 -164 -101 -107 -118 -116 -144 -127 -96 -108 -205 -275 -311 -354 -374 -305 -0 -0 -0 -0 -0 -0 -0 -0 -0 -0 -0 -0
-0 -0 -305 -212 -186 -155 -90 -53 -59 -54 -71 -76 -84 -111 -212 -253 -333 -418 -410 -389 -0 -0 -0 -0 -0 -0 -0 -0 -0 -0 -0 -0
-0 -0 -212 -236 -176 -189 -126 -105 -62 -63 -77 -100 -106 -115 -168 -223 -313 -400 -447 -451 -0 -0 -0 -0 -0 -0 -0 -0 -0 -0 -0 -0
-0 -0 -400 -229 -171 -221 -155 -119 -119 -121 -123 -138 -110 -107 -152 -227 -294 -387 -435 -442 -0 -0 -0 -0 -0 -0 -0 -0 -0 -0 -0 -0
-0 -0 -313 -161 -155 -184 -157 -158 -140 -102 -114 -100 -102 -84 -110 -173 -241 -375 -428 -443 -330 -0 -0 -0 -0 -0 -0 -0 -0 -0 -0 -0
-0 -289 -244 -121 -137 -146 -124 -116 -108 -111 -117 -125 -83 -75 -54 -162 -197 -331 -392 -440 -485 -0 -0 -0 -0 -0 -0 -0 -0 -0 -0 -0
-0 -238 -181 -102 -71 -106 -101 -91 -77 -99 -81 -93 -73 -75 -79 -139 -159 -261 -320 -379 -422 -274 -0 -0 -0 -0 -0 -0 -0 -0 -0 -0
Wind_Speed
7 5 1 5 9 13 16 17 17 16 15 14 14 13 14 14 15 16 18 17 19 21 22 22 21 21 19 17 16 16 15 9
5 5 2 4 9 13 15 17 16 16 15 14 14 14 13 13 13 15 16 17 18 19 20 20 17 20 19 17 13 12 12 11
5 4 2 5 8 12 14 16 16 16 15 14 14 12 12 12 11 15 15 15 16 16 17 16 16 17 18 17 14 10 10 10
4 3 3 4 8 12 15 17 17 16 15 15 13 12 11 10 10 12 12 14 14 14 13 13 13 12 14 15 13 12 10 10
7 3 2 7 9 13 16 19 19 17 17 15 14 13 11 9 8 8 9 9 11 10 9 7 11 11 11 11 12 12 11 9
9 7 5 6 6 13 17 20 21 19 18 17 15 13 13 11 9 8 8 7 12 9 8 6 8 9 9 8 8 10 10 10
11 10 9 9 10 11 17 21 22 22 20 20 18 16 15 13 12 10 9 8 10 8 8 7 6 7 6 6 6 6 8 8
16 14 13 11 14 14 17 21 23 24 23 22 21 19 17 16 14 13 11 10 9 8 8 7 5 5 5 3 2 2 3 5
21 19 19 16 15 18 19 23 24 26 25 23 23 22 20 20 18 15 14 11 10 9 11 9 7 5 5 3 2 1 1 2
22 23 22 22 21 20 22 24 25 28 29 26 25 24 24 22 20 18 15 14 13 12 12 12 10 8 6 5 4 4 4 3
26 26 26 24 23 25 25 25 27 29 30 31 28 27 27 25 23 20 17 16 16 15 15 17 13 10 8 8 8 7 6 5
30 29 28 26 25 29 29 30 31 30 33 33 32 31 29 26 23 21 18 17 18 19 17 19 18 14 12 12 14 13 11 7
30 31 28 28 27 28 29 29 30 32 33 34 33 33 30 29 26 22 20 20 19 21 19 16 18 15 14 17 19 19 17 15
36 36 32 29 28 27 30 29 30 30 31 34 35 33 31 30 29 25 22 20 19 21 20 21 21 18 19 16 23 27 27 18
41 34 31 30 28 27 30 31 32 33 34 33 37 34 32 32 30 26 24 21 22 22 22 22 23 23 20 20 23 26 24 24
37 32 29 30 29 27 28 30 29 29 30 29 32 36 35 33 31 28 26 24 22 23 24 25 25 25 25 24 23 19 23 23
37 32 28 29 28 27 26 30 29 28 30 30 31 34 36 33 32 30 28 26 25 24 24 26 26 26 26 25 30 27 25 25
33 28 26 29 27 27 26 28 28 28 29 30 31 33 36 35 34 33 30 28 26 25 26 27 27 28 27 29 29 29 29 28
29 27 26 25 26 25 27 28 28 27 27 30 30 31 34 35 34 34 33 30 29 27 27 27 27 28 28 28 30 32 32 31
25 25 25 25 25 25 27 29 29 31 30 28 29 30 33 34 36 35 34 34 32 31 30 30 29 29 30 30 31 32 34 33
Wind_Direction
9 9 90 151 177 177 176 175 176 181 177 171 165 157 147 138 127 121 116 111 111 110 107 102 90 86 86 79 74 69 63 52
17 18 81 158 181 179 179 181 183 184 182 177 171 163 153 144 133 125 120 119 117 114 111 106 92 91 89 82 68 59 59 57
350 26 99 157 184 190 188 194 192 191 191 184 176 179 162 150 145 133 129 125 123 118 114 106 97 94 93 89 74 53 51 56
320 12 125 153 186 198 202 209 209 207 205 192 193 191 179 161 159 141 135 132 127 123 118 108 98 89 88 88 77 67 58 59
282 285 163 156 176 206 215 221 218 216 212 199 204 202 198 184 173 159 145 147 134 130 126 116 109 101 96 86 82 76 68 58
259 258 233 189 215 205 217 220 222 218 214 211 206 201 206 193 199 187 174 181 147 146 145 137 121 112 107 97 82 81 76 71
244 243 234 229 239 223 221 223 223 224 219 216 214 212 209 205 214 206 191 183 168 174 162 158 144 129 119 113 99 87 82 76
248 238 239 230 240 232 229 224 225 226 225 221 220 220 216 215 217 220 222 211 199 190 195 187 185 162 142 140 122 96 78 80
247 244 246 240 233 240 240 237 226 227 227 220 223 224 219 223 226 220 227 220 212 212 231 223 215 220 178 178 207 226 294 70
246 249 246 247 245 242 240 238 236 232 231 228 223 226 227 224 227 230 227 224 228 222 225 230 227 222 219 233 232 249 259 274
249 249 247 242 240 249 240 236 237 238 234 233 226 228 230 229 232 230 223 223 231 225 231 235 232 232 233 247 256 256 256 264
253 252 249 245 246 251 246 242 240 239 238 236 232 232 231 232 234 230 219 215 229 234 223 240 241 237 249 258 264 268 268 256
254 255 248 247 245 243 243 236 236 238 239 237 235 233 231 232 235 231 223 217 220 226 229 221 239 235 245 261 267 269 269 268
260 257 250 241 236 237 245 236 233 233 236 239 237 234 231 230 234 232 224 223 219 218 218 232 245 223 245 248 262 263 264 268
263 255 245 235 229 238 244 242 241 239 237 237 236 234 231 230 231 231 227 228 224 223 217 218 235 234 237 254 260 263 264 266
257 254 244 231 226 232 230 230 231 233 230 231 236 235 235 232 233 231 228 233 230 223 226 230 233 230 241 244 263 267 266 271
256 255 243 232 224 228 225 229 233 233 233 231 233 235 236 232 233 232 233 235 236 230 227 227 228 239 234 239 254 259 266 271
252 248 240 233 224 227 222 221 230 233 234 234 236 236 237 233 234 235 236 237 236 232 233 234 233 240 240 246 245 252 259 265
248 243 240 232 225 224 228 231 233 234 235 235 236 235 237 234 235 236 239 237 238 236 235 235 233 233 236 239 248 252 260 262
250 246 243 237 236 231 233 235 239 241 242 240 238 236 237 238 239 242 243 243 240 239 242 242 241 242 244 246 250 252 256 259